| time (UTC) | temp F | wind direction | speed knots | gust knots | rain 1hr in | rain 24hr in | rain mn in | humidity % | barometer mb |
| 20260507075522 | 38 | 1 | 0.0 | 0.9 | 0.00 | 0.00 | 0.00 | 62 | 1025.3 |
| 20260507075018 | 38 | 1 | 0.0 | 0.9 | 0.00 | 0.00 | 0.00 | 61 | 1025.0 |
| 20260507074515 | 39 | 357 | 0.9 | 0.9 | 0.00 | 0.00 | 0.00 | 61 | 1025.4 |
| 20260507074014 | 39 | 1 | 0.0 | 0.9 | 0.00 | 0.00 | 0.00 | 61 | 1025.3 |
| 20260507073509 | 38 | 1 | 0.0 | 0.9 | 0.00 | 0.00 | 0.00 | 62 | 1025.2 |
| 20260507073006 | 38 | 1 | 0.0 | 0.0 | 0.00 | 0.00 | 0.00 | 62 | 1025.1 |
| 20260507072504 | 39 | 1 | 0.0 | 0.9 | 0.00 | 0.00 | 0.00 | 61 | 1025.0 |
| 20260507072001 | 39 | 2 | 0.0 | 0.9 | 0.00 | 0.00 | 0.00 | 60 | 1025.0 |
| 20260507071458 | 39 | 5 | 0.0 | 0.9 | 0.00 | 0.00 | 0.00 | 59 | 1025.2 |
| 20260507070954 | 39 | 15 | 0.0 | 0.9 | 0.00 | 0.00 | 0.00 | 59 | 1025.1 |
| 20260507070451 | 40 | 13 | 0.0 | 0.9 | 0.00 | 0.00 | 0.00 | 59 | 1025.0 |
| 20260507065948 | 40 | 14 | 0.0 | 0.0 | 0.00 | 0.00 | 0.00 | 60 | 1025.1 |
| 20260507065445 | 40 | 13 | 0.0 | 0.0 | 0.00 | 0.00 | 0.00 | 59 | 1025.2 |
| 20260507064942 | 41 | 14 | 0.0 | 0.0 | 0.00 | 0.00 | 0.00 | 59 | 1025.0 |
| 20260507064440 | 41 | 14 | 0.0 | 0.0 | 0.00 | 0.00 | 0.00 | 58 | 1024.8 |
| 20260507063938 | 41 | 14 | 0.0 | 0.9 | 0.00 | 0.00 | 0.00 | 58 | 1025.0 |
| 20260507063434 | 41 | 15 | 0.0 | 0.0 | 0.00 | 0.00 | 0.00 | 58 | 1025.0 |
| 20260507062932 | 41 | 15 | 0.0 | 0.0 | 0.00 | 0.00 | 0.00 | 57 | 1024.8 |
| 20260507062429 | 41 | 13 | 0.0 | 0.0 | 0.00 | 0.00 | 0.00 | 57 | 1024.8 |
| 20260507061926 | 42 | 15 | 0.0 | 0.0 | 0.00 | 0.00 | 0.00 | 56 | 1024.7 |
| 20260507061424 | 42 | 14 | 0.0 | 0.0 | 0.00 | 0.00 | 0.00 | 56 | 1024.5 |
| 20260507060922 | 43 | 14 | 0.0 | 0.9 | 0.00 | 0.00 | 0.00 | 55 | 1024.6 |
| 20260507060419 | 43 | 14 | 0.0 | 0.0 | 0.00 | 0.00 | 0.00 | 55 | 1024.7 |
| 20260507055915 | 43 | 7 | 0.0 | 0.0 | 0.00 | 0.00 | 0.00 | 55 | 1024.6 |
| 20260507055411 | 44 | 7 | 0.0 | 0.0 | 0.00 | 0.00 | 0.00 | 54 | 1024.5 |
| 20260507054908 | 44 | 7 | 0.0 | 0.0 | 0.00 | 0.00 | 0.00 | 54 | 1024.2 |
| 20260507054404 | 44 | 7 | 0.0 | 0.0 | 0.00 | 0.00 | 0.00 | 53 | 1024.2 |
| 20260507053901 | 44 | 6 | 0.0 | 0.0 | 0.00 | 0.00 | 0.00 | 52 | 1024.1 |
| 20260507053359 | 44 | 6 | 0.0 | 0.0 | 0.00 | 0.00 | 0.00 | 52 | 1024.5 |
| 20260507052858 | 45 | 5 | 0.0 | 0.9 | 0.00 | 0.00 | 0.00 | 50 | 1024.3 |
| 20260507052354 | 45 | 15 | 0.0 | 0.0 | 0.00 | 0.00 | 0.00 | 50 | 1024.1 |
| 20260507051851 | 45 | 15 | 0.0 | 0.0 | 0.00 | 0.00 | 0.00 | 49 | 1024.1 |
| 20260507051349 | 46 | 15 | 0.0 | 0.0 | 0.00 | 0.00 | 0.00 | 49 | 1024.1 |
| 20260507050845 | 46 | 4 | 0.0 | 0.9 | 0.00 | 0.00 | 0.00 | 47 | 1024.0 |
| 20260507050342 | 46 | 21 | 0.0 | 0.0 | 0.00 | 0.00 | 0.00 | 47 | 1024.0 |
| 20260507045839 | 46 | 21 | 0.0 | 0.0 | 0.00 | 0.00 | 0.00 | 49 | 1023.8 |
| 20260507045335 | 46 | 21 | 0.0 | 0.0 | 0.00 | 0.00 | 0.00 | 48 | 1024.0 |
| 20260507044833 | 46 | 21 | 0.0 | 0.9 | 0.00 | 0.00 | 0.00 | 50 | 1023.7 |
| 20260507044329 | 46 | 12 | 0.0 | 0.0 | 0.00 | 0.00 | 0.00 | 50 | 1024.0 |
| 20260507043825 | 46 | 5 | 0.0 | 0.9 | 0.00 | 0.00 | 0.00 | 51 | 1023.7 |
| 20260507043322 | 46 | 5 | 0.0 | 0.0 | 0.00 | 0.00 | 0.00 | 51 | 1023.6 |
| 20260507042818 | 47 | 5 | 0.0 | 0.9 | 0.00 | 0.00 | 0.00 | 50 | 1023.6 |
| 20260507042314 | 47 | 5 | 0.0 | 0.9 | 0.00 | 0.00 | 0.00 | 46 | 1023.7 |
| 20260507041811 | 48 | 5 | 0.0 | 0.9 | 0.00 | 0.00 | 0.00 | 46 | 1023.5 |
| 20260507041308 | 48 | 5 | 0.0 | 0.9 | 0.00 | 0.00 | 0.00 | 45 | 1023.4 |
| 20260507040805 | 48 | 5 | 0.0 | 0.9 | 0.00 | 0.00 | 0.00 | 45 | 1023.7 |
| 20260507040301 | 49 | 5 | 0.0 | 0.0 | 0.00 | 0.00 | 0.00 | 45 | 1023.4 |
| 20260507035757 | 49 | 10 | 0.0 | 0.9 | 0.00 | 0.00 | 0.00 | 44 | 1023.4 |
| 20260507035252 | 49 | 8 | 0.9 | 0.9 | 0.00 | 0.00 | 0.00 | 44 | 1023.4 |
| 20260507034750 | 50 | 10 | 0.0 | 0.0 | 0.00 | 0.00 | 0.00 | 44 | 1023.2 |
| 20260507034247 | 50 | 11 | 0.0 | 0.0 | 0.00 | 0.00 | 0.00 | 43 | 1023.1 |
| 20260507033745 | 50 | 11 | 0.0 | 0.0 | 0.00 | 0.00 | 0.00 | 43 | 1023.2 |
| 20260507033242 | 50 | 17 | 0.0 | 0.0 | 0.00 | 0.00 | 0.00 | 42 | 1023.2 |
| 20260507032739 | 51 | 19 | 0.0 | 0.9 | 0.00 | 0.00 | 0.00 | 41 | 1023.1 |
| 20260507032235 | 51 | 19 | 0.0 | 0.9 | 0.00 | 0.00 | 0.00 | 41 | 1022.9 |
| 20260507031732 | 52 | 21 | 0.0 | 0.9 | 0.00 | 0.00 | 0.00 | 40 | 1023.2 |
| 20260507031229 | 52 | 22 | 0.0 | 0.9 | 0.00 | 0.00 | 0.00 | 40 | 1023.0 |
| 20260507030726 | 52 | 23 | 0.0 | 0.0 | 0.00 | 0.00 | 0.00 | 40 | 1022.9 |
| 20260507030223 | 53 | 11 | 0.9 | 0.9 | 0.00 | 0.00 | 0.00 | 40 | 1022.7 |
| 20260507025720 | 53 | 28 | 0.0 | 0.9 | 0.00 | 0.00 | 0.00 | 39 | 1022.4 |
| 20260507025217 | 53 | 29 | 0.0 | 0.0 | 0.00 | 0.00 | 0.00 | 38 | 1022.7 |
| 20260507024716 | 54 | 29 | 0.0 | 0.0 | 0.00 | 0.00 | 0.00 | 38 | 1022.5 |
| 20260507024212 | 54 | 29 | 0.0 | 0.9 | 0.00 | 0.00 | 0.00 | 38 | 1022.4 |
| 20260507023708 | 55 | 30 | 0.0 | 0.0 | 0.00 | 0.00 | 0.00 | 37 | 1022.2 |
| 20260507023205 | 55 | 30 | 0.0 | 0.0 | 0.00 | 0.00 | 0.00 | 36 | 1022.2 |
| 20260507022702 | 56 | 30 | 0.0 | 0.0 | 0.00 | 0.00 | 0.00 | 36 | 1022.1 |
| 20260507022158 | 56 | 30 | 0.0 | 0.0 | 0.00 | 0.00 | 0.00 | 34 | 1022.1 |
| 20260507021654 | 57 | 30 | 0.0 | 0.0 | 0.00 | 0.00 | 0.00 | 33 | 1022.0 |
| 20260507021149 | 57 | 30 | 0.0 | 0.0 | 0.00 | 0.00 | 0.00 | 32 | 1021.7 |
| 20260507020649 | 58 | 30 | 0.0 | 0.0 | 0.00 | 0.00 | 0.00 | 31 | 1021.9 |
| 20260507020144 | 59 | 30 | 0.0 | 0.0 | 0.00 | 0.00 | 0.00 | 31 | 1021.9 |
| 20260507015643 | 59 | 30 | 0.0 | 0.9 | 0.00 | 0.00 | 0.00 | 31 | 1021.9 |
| 20260507015140 | 59 | 31 | 0.0 | 0.9 | 0.00 | 0.00 | 0.00 | 30 | 1022.0 |
| 20260507014636 | 59 | 35 | 0.9 | 0.9 | 0.00 | 0.00 | 0.00 | 29 | 1021.6 |
| 20260507014132 | 60 | 24 | 0.0 | 0.9 | 0.00 | 0.00 | 0.00 | 29 | 1021.5 |
| 20260507013629 | 60 | 30 | 0.0 | 0.9 | 0.00 | 0.00 | 0.00 | 29 | 1021.6 |
| 20260507013126 | 60 | 34 | 0.0 | 0.9 | 0.00 | 0.00 | 0.00 | 31 | 1021.7 |
| 20260507012624 | 60 | 3 | 0.9 | 0.9 | 0.00 | 0.00 | 0.00 | 28 | 1021.7 |
| 20260507012119 | 60 | 39 | 0.9 | 1.7 | 0.00 | 0.00 | 0.00 | 28 | 1021.4 |
| 20260507011617 | 61 | 54 | 1.7 | 1.7 | 0.00 | 0.00 | 0.00 | 28 | 1021.4 |
| 20260507011113 | 62 | 17 | 2.6 | 2.6 | 0.00 | 0.00 | 0.00 | 27 | 1021.5 |
| 20260507010608 | 62 | 68 | 0.0 | 0.0 | 0.00 | 0.00 | 0.00 | 27 | 1021.4 |
| 20260507010104 | 61 | 68 | 0.0 | 0.0 | 0.00 | 0.00 | 0.00 | 26 | 1021.5 |
| 20260507005602 | 61 | 216 | 0.9 | 1.7 | 0.00 | 0.00 | 0.00 | 26 | 1021.1 |
| 20260507005058 | 61 | 205 | 0.9 | 2.6 | 0.00 | 0.00 | 0.00 | 26 | 1021.4 |
| 20260507004555 | 61 | 23 | 0.0 | 0.0 | 0.00 | 0.00 | 0.00 | 27 | 1021.3 |
| 20260507004052 | 61 | 23 | 0.0 | 1.7 | 0.00 | 0.00 | 0.00 | 27 | 1021.5 |
| 20260507003548 | 61 | 27 | 0.0 | 0.9 | 0.00 | 0.00 | 0.00 | 29 | 1021.4 |
| 20260507003043 | 61 | 27 | 0.0 | 2.6 | 0.00 | 0.00 | 0.00 | 28 | 1021.1 |
| 20260507002540 | 61 | 115 | 0.9 | 1.7 | 0.00 | 0.00 | 0.00 | 27 | 1021.1 |
| 20260507002036 | 60 | 223 | 0.0 | 0.0 | 0.00 | 0.00 | 0.00 | 27 | 1021.0 |
| 20260507001533 | 60 | 223 | 0.0 | 0.9 | 0.00 | 0.00 | 0.00 | 28 | 1021.1 |
| 20260507001031 | 60 | 223 | 0.0 | 0.0 | 0.00 | 0.00 | 0.00 | 26 | 1021.1 |
| 20260507000526 | 61 | 222 | 0.0 | 1.7 | 0.00 | 0.00 | 0.00 | 28 | 1021.1 |
| 20260507000023 | 62 | 60 | 0.0 | 0.9 | 0.00 | 0.00 | 0.00 | 26 | 1021.1 |
| 20260506235520 | 63 | 12 | 0.0 | 0.9 | 0.00 | 0.00 | 0.00 | 25 | 1021.0 |
| 20260506235015 | 63 | 40 | 0.0 | 1.7 | 0.00 | 0.00 | 0.00 | 26 | 1020.9 |
| 20260506234513 | 64 | 246 | 3.5 | 4.3 | 0.00 | 0.00 | 0.00 | 23 | 1020.8 |
| 20260506234010 | 64 | 281 | 0.9 | 6.1 | 0.00 | 0.00 | 0.00 | 24 | 1021.0 |
| 20260506233506 | 64 | 51 | 0.0 | 1.7 | 0.00 | 0.00 | 0.00 | 23 | 1020.8 |
| 20260506233003 | 63 | 54 | 0.9 | 0.9 | 0.00 | 0.00 | 0.00 | 25 | 1020.6 |
| 20260506232459 | 64 | 236 | 0.0 | 4.3 | 0.00 | 0.00 | 0.00 | 23 | 1020.5 |
| 20260506231955 | 64 | 245 | 0.9 | 1.7 | 0.00 | 0.00 | 0.00 | 24 | 1020.6 |
| 20260506231453 | 63 | 343 | 0.9 | 1.7 | 0.00 | 0.00 | 0.00 | 24 | 1020.8 |
| 20260506230950 | 65 | 242 | 3.5 | 4.3 | 0.00 | 0.00 | 0.00 | 22 | 1020.5 |
| 20260506230446 | 65 | 35 | 0.9 | 2.6 | 0.00 | 0.00 | 0.00 | 23 | 1020.8 |
| 20260506225943 | 64 | 27 | 0.9 | 4.3 | 0.00 | 0.00 | 0.00 | 23 | 1020.6 |
| 20260506225441 | 65 | 277 | 2.6 | 2.6 | 0.00 | 0.00 | 0.00 | 22 | 1020.5 |
| 20260506224937 | 64 | 344 | 0.9 | 2.6 | 0.00 | 0.00 | 0.00 | 23 | 1020.5 |
| 20260506224434 | 65 | 41 | 0.0 | 0.0 | 0.00 | 0.00 | 0.00 | 23 | 1020.8 |
| 20260506223931 | 66 | 218 | 3.5 | 4.3 | 0.00 | 0.00 | 0.00 | 21 | 1020.8 |
| 20260506223426 | 65 | 243 | 0.9 | 1.7 | 0.00 | 0.00 | 0.00 | 22 | 1020.8 |
| 20260506222924 | 67 | 288 | 0.9 | 5.2 | 0.00 | 0.00 | 0.00 | 22 | 1020.8 |
| 20260506222420 | 65 | 236 | 0.9 | 2.6 | 0.00 | 0.00 | 0.00 | 22 | 1020.8 |
| 20260506221917 | 66 | 140 | 2.6 | 4.3 | 0.00 | 0.00 | 0.00 | 23 | 1020.8 |
| 20260506221414 | 65 | 256 | 1.7 | 5.2 | 0.00 | 0.00 | 0.00 | 24 | 1020.9 |
| 20260506220912 | 64 | 60 | 1.7 | 4.3 | 0.00 | 0.00 | 0.00 | 24 | 1020.9 |
| 20260506220407 | 64 | 354 | 0.9 | 4.3 | 0.00 | 0.00 | 0.00 | 25 | 1021.0 |
| 20260506215904 | 63 | 285 | 2.6 | 5.2 | 0.00 | 0.00 | 0.00 | 25 | 1021.0 |
| 20260506215400 | 67 | 27 | 0.9 | 0.9 | 0.00 | 0.00 | 0.00 | 24 | 1021.1 |
| 20260506214856 | 67 | 41 | 0.9 | 2.6 | 0.00 | 0.00 | 0.00 | 26 | 1021.0 |
| 20260506214353 | 67 | 328 | 1.7 | 2.6 | 0.00 | 0.00 | 0.00 | 26 | 1021.1 |
| 20260506213851 | 65 | 301 | 1.7 | 1.7 | 0.00 | 0.00 | 0.00 | 24 | 1021.4 |
| 20260506213348 | 66 | 265 | 2.6 | 5.2 | 0.00 | 0.00 | 0.00 | 25 | 1021.1 |
| 20260506212845 | 63 | 50 | 0.0 | 1.7 | 0.00 | 0.00 | 0.00 | 29 | 1021.1 |
| 20260506212341 | 62 | 20 | 1.7 | 2.6 | 0.00 | 0.00 | 0.00 | 27 | 1021.3 |
| 20260506211836 | 62 | 45 | 0.9 | 2.6 | 0.00 | 0.00 | 0.00 | 29 | 1021.3 |
| 20260506211332 | 65 | 349 | 0.0 | 4.3 | 0.00 | 0.00 | 0.00 | 27 | 1021.0 |
| 20260506210830 | 65 | 37 | 0.9 | 5.2 | 0.00 | 0.00 | 0.00 | 26 | 1021.4 |
| 20260506210327 | 65 | 319 | 0.9 | 2.6 | 0.00 | 0.00 | 0.00 | 28 | 1021.1 |
| 20260506205824 | 64 | 28 | 1.7 | 2.6 | 0.00 | 0.00 | 0.00 | 28 | 1021.3 |
| 20260506205320 | 63 | 95 | 0.9 | 4.3 | 0.00 | 0.00 | 0.00 | 28 | 1021.3 |
| 20260506204817 | 65 | 318 | 0.0 | 1.7 | 0.00 | 0.00 | 0.00 | 27 | 1021.1 |
| 20260506204314 | 64 | 268 | 1.7 | 2.6 | 0.00 | 0.00 | 0.00 | 28 | 1021.4 |
| 20260506203812 | 62 | 193 | 0.9 | 2.6 | 0.00 | 0.00 | 0.00 | 29 | 1021.4 |
| 20260506203309 | 62 | 133 | 0.9 | 5.2 | 0.00 | 0.00 | 0.00 | 28 | 1021.3 |
| 20260506202806 | 65 | 119 | 0.9 | 2.6 | 0.00 | 0.00 | 0.00 | 26 | 1021.1 |
| 20260506202306 | 64 | 254 | 3.5 | 5.2 | 0.00 | 0.00 | 0.00 | 28 | 1021.5 |
| 20260506201759 | 64 | 255 | 1.7 | 5.2 | 0.00 | 0.00 | 0.00 | 26 | 1021.4 |
| 20260506201256 | 63 | 256 | 1.7 | 2.6 | 0.00 | 0.00 | 0.00 | 28 | 1021.4 |
| 20260506200753 | 64 | 237 | 4.3 | 6.1 | 0.00 | 0.00 | 0.00 | 25 | 1021.4 |
| 20260506200249 | 64 | 35 | 0.9 | 1.7 | 0.00 | 0.00 | 0.00 | 25 | 1021.1 |
| 20260506195746 | 64 | 279 | 0.0 | 1.7 | 0.00 | 0.00 | 0.00 | 28 | 1021.1 |
| 20260506195242 | 62 | 296 | 1.7 | 1.7 | 0.00 | 0.00 | 0.00 | 28 | 1021.3 |
| 20260506194740 | 63 | 234 | 0.9 | 6.1 | 0.00 | 0.00 | 0.00 | 28 | 1021.6 |
| 20260506194236 | 64 | 341 | 0.9 | 5.2 | 0.00 | 0.00 | 0.00 | 26 | 1021.5 |
| 20260506193734 | 63 | 306 | 1.7 | 1.7 | 0.00 | 0.00 | 0.00 | 27 | 1021.4 |
| 20260506193230 | 63 | 274 | 2.6 | 4.3 | 0.00 | 0.00 | 0.00 | 27 | 1021.4 |
| 20260506192727 | 62 | 292 | 0.9 | 2.6 | 0.00 | 0.00 | 0.00 | 29 | 1021.5 |
| 20260506192224 | 61 | 275 | 0.9 | 2.6 | 0.00 | 0.00 | 0.00 | 30 | 1021.4 |
| 20260506191720 | 59 | 206 | 0.0 | 1.7 | 0.00 | 0.00 | 0.00 | 32 | 1021.4 |
| 20260506191216 | 59 | 59 | 0.0 | 0.9 | 0.00 | 0.00 | 0.00 | 31 | 1021.5 |
| 20260506190714 | 60 | 209 | 0.0 | 1.7 | 0.00 | 0.00 | 0.00 | 33 | 1021.3 |
| 20260506190210 | 60 | 209 | 1.7 | 4.3 | 0.00 | 0.00 | 0.00 | 32 | 1021.4 |
| 20260506185708 | 59 | 207 | 1.7 | 4.3 | 0.00 | 0.00 | 0.00 | 30 | 1021.5 |
| 20260506185204 | 58 | 262 | 1.7 | 1.7 | 0.00 | 0.00 | 0.00 | 33 | 1021.4 |
| 20260506184702 | 59 | 230 | 2.6 | 7.0 | 0.00 | 0.00 | 0.00 | 30 | 1021.4 |
| 20260506184159 | 59 | 254 | 0.9 | 2.6 | 0.00 | 0.00 | 0.00 | 34 | 1021.5 |
| 20260506183655 | 58 | 38 | 0.0 | 1.7 | 0.00 | 0.00 | 0.00 | 35 | 1021.6 |
| 20260506183151 | 58 | 312 | 0.9 | 1.7 | 0.00 | 0.00 | 0.00 | 34 | 1021.5 |
| 20260506182649 | 58 | 254 | 2.6 | 2.6 | 0.00 | 0.00 | 0.00 | 33 | 1021.5 |
| 20260506182146 | 58 | 241 | 2.6 | 4.3 | 0.00 | 0.00 | 0.00 | 34 | 1021.7 |
| 20260506181644 | 58 | 347 | 0.9 | 0.9 | 0.00 | 0.00 | 0.00 | 38 | 1021.5 |
| 20260506181140 | 57 | 250 | 1.7 | 7.0 | 0.00 | 0.00 | 0.00 | 35 | 1021.5 |
| 20260506180637 | 57 | 255 | 2.6 | 2.6 | 0.00 | 0.00 | 0.00 | 37 | 1021.4 |
| 20260506180134 | 56 | 0 | 0.9 | 1.7 | 0.00 | 0.00 | 0.00 | 39 | 1021.7 |
| 20260506175630 | 55 | 294 | 0.9 | 2.6 | 0.00 | 0.00 | 0.00 | 40 | 1021.5 |
| 20260506175126 | 56 | 347 | 0.9 | 1.7 | 0.00 | 0.00 | 0.00 | 41 | 1021.6 |
| 20260506174625 | 56 | 231 | 2.6 | 4.3 | 0.00 | 0.00 | 0.00 | 38 | 1021.7 |
| 20260506174121 | 55 | 243 | 0.0 | 4.3 | 0.00 | 0.00 | 0.00 | 39 | 1021.5 |
| 20260506173619 | 55 | 220 | 2.6 | 4.3 | 0.00 | 0.00 | 0.00 | 38 | 1021.5 |
| 20260506173116 | 54 | 66 | 0.0 | 2.6 | 0.00 | 0.00 | 0.00 | 40 | 1021.5 |
| 20260506172613 | 55 | 46 | 0.0 | 0.9 | 0.00 | 0.00 | 0.00 | 40 | 1021.5 |
| 20260506172109 | 55 | 220 | 3.5 | 4.3 | 0.00 | 0.00 | 0.00 | 38 | 1021.4 |
| 20260506171607 | 54 | 358 | 0.9 | 2.6 | 0.00 | 0.00 | 0.00 | 44 | 1021.4 |
| 20260506171104 | 54 | 168 | 0.0 | 2.6 | 0.00 | 0.00 | 0.00 | 42 | 1021.5 |
| 20260506170601 | 54 | 258 | 1.7 | 4.3 | 0.00 | 0.00 | 0.00 | 40 | 1021.5 |
| 20260506170059 | 53 | 266 | 1.7 | 2.6 | 0.00 | 0.00 | 0.00 | 42 | 1021.5 |
| 20260506165557 | 53 | 316 | 1.7 | 5.2 | 0.00 | 0.00 | 0.00 | 41 | 1021.5 |
| 20260506165053 | 53 | 26 | 0.0 | 1.7 | 0.00 | 0.00 | 0.00 | 44 | 1021.3 |
| 20260506164551 | 53 | 47 | 0.9 | 2.6 | 0.00 | 0.00 | 0.00 | 45 | 1021.4 |
| 20260506164048 | 53 | 237 | 0.9 | 4.3 | 0.00 | 0.00 | 0.00 | 42 | 1021.3 |
| 20260506163543 | 52 | 19 | 0.0 | 0.9 | 0.00 | 0.00 | 0.00 | 48 | 1021.0 |
| 20260506163039 | 51 | 240 | 0.0 | 2.6 | 0.00 | 0.00 | 0.00 | 46 | 1021.1 |
| 20260506162536 | 51 | 286 | 0.9 | 2.6 | 0.00 | 0.00 | 0.00 | 45 | 1021.1 |
| 20260506162033 | 50 | 282 | 0.0 | 2.6 | 0.00 | 0.00 | 0.00 | 52 | 1021.0 |
| 20260506161531 | 50 | 310 | 0.0 | 1.7 | 0.00 | 0.00 | 0.00 | 53 | 1021.4 |
| 20260506161027 | 49 | 313 | 0.0 | 0.9 | 0.00 | 0.00 | 0.00 | 53 | 1021.1 |
| 20260506160525 | 49 | 214 | 1.7 | 2.6 | 0.00 | 0.00 | 0.00 | 53 | 1021.0 |
| 20260506160022 | 48 | 261 | 0.0 | 0.9 | 0.00 | 0.00 | 0.00 | 54 | 1021.1 |
| 20260506155520 | 47 | 353 | 0.0 | 1.7 | 0.00 | 0.00 | 0.00 | 53 | 1021.3 |
| 20260506153652 | 46 | 295 | 0.0 | 2.6 | 0.00 | 0.00 | 0.00 | 55 | 1021.4 |
| 20260506153149 | 46 | 242 | 0.9 | 4.3 | 0.00 | 0.00 | 0.00 | 56 | 1021.3 |
| 20260506152646 | 45 | 261 | 0.9 | 1.7 | 0.00 | 0.00 | 0.00 | 57 | 1021.0 |
| 20260506152143 | 44 | 330 | 0.9 | 1.7 | 0.00 | 0.00 | 0.00 | 59 | 1021.0 |
| 20260506151642 | 44 | 292 | 1.7 | 1.7 | 0.00 | 0.00 | 0.00 | 60 | 1020.9 |
| 20260506151138 | 44 | 249 | 0.0 | 1.7 | 0.00 | 0.00 | 0.00 | 61 | 1021.1 |
| 20260506150635 | 43 | 246 | 1.7 | 2.6 | 0.00 | 0.00 | 0.00 | 61 | 1021.1 |
| 20260506150132 | 43 | 15 | 0.0 | 1.7 | 0.00 | 0.00 | 0.00 | 62 | 1020.8 |
| 20260506145629 | 43 | 3 | 0.9 | 0.9 | 0.00 | 0.00 | 0.00 | 65 | 1020.9 |
| 20260506145126 | 42 | 241 | 0.9 | 2.6 | 0.00 | 0.00 | 0.00 | 64 | 1020.9 |
| 20260506144624 | 41 | 204 | 0.0 | 0.9 | 0.00 | 0.00 | 0.00 | 66 | 1020.9 |
| 20260506144120 | 41 | 108 | 0.9 | 2.6 | 0.00 | 0.00 | 0.00 | 68 | 1021.1 |
| 20260506143618 | 40 | 55 | 0.0 | 0.9 | 0.00 | 0.00 | 0.00 | 70 | 1020.9 |
| 20260506143116 | 40 | 33 | 0.0 | 0.9 | 0.00 | 0.00 | 0.00 | 73 | 1021.0 |
| 20260506142614 | 39 | 8 | 0.9 | 1.7 | 0.00 | 0.00 | 0.00 | 74 | 1021.3 |
| 20260506142112 | 38 | 24 | 0.0 | 0.9 | 0.00 | 0.00 | 0.00 | 77 | 1020.9 |
| 20260506141609 | 37 | 17 | 0.0 | 1.7 | 0.00 | 0.00 | 0.00 | 78 | 1021.5 |
| 20260506141107 | 36 | 35 | 0.0 | 0.0 | 0.00 | 0.00 | 0.00 | 84 | 1021.1 |
| 20260506140604 | 35 | 356 | 0.0 | 0.9 | 0.00 | 0.00 | 0.00 | 86 | 1021.1 |
| 20260506135558 | 34 | 41 | 0.0 | 0.9 | 0.00 | 0.00 | 0.00 | 91 | 1021.0 |
| 20260506135054 | 33 | 15 | 0.0 | 0.9 | 0.00 | 0.00 | 0.00 | 91 | 1021.0 |
| 20260506134551 | 33 | 2 | 0.9 | 0.9 | 0.00 | 0.00 | 0.00 | 92 | 1020.9 |
| 20260506134047 | 32 | 19 | 0.0 | 0.9 | 0.00 | 0.00 | 0.00 | 92 | 1020.8 |
| 20260506133544 | 32 | 24 | 0.0 | 0.0 | 0.00 | 0.00 | 0.00 | 92 | 1020.9 |
| 20260506133041 | 32 | 19 | 0.0 | 0.0 | 0.00 | 0.00 | 0.00 | 92 | 1020.8 |
| 20260506132538 | 31 | 24 | 0.0 | 0.0 | 0.00 | 0.00 | 0.00 | 93 | 1020.8 |
| 20260506132035 | 31 | 39 | 0.0 | 0.0 | 0.00 | 0.00 | 0.00 | 93 | 1020.8 |
| 20260506131532 | 31 | 83 | 0.0 | 0.0 | 0.00 | 0.00 | 0.00 | 94 | 1020.8 |
| 20260506131029 | 30 | 31 | 0.0 | 0.0 | 0.00 | 0.00 | 0.00 | 94 | 1020.6 |
| 20260506130526 | 30 | 26 | 0.0 | 0.0 | 0.00 | 0.00 | 0.00 | 94 | 1020.4 |
| 20260506130023 | 30 | 28 | 0.0 | 0.0 | 0.00 | 0.00 | 0.00 | 94 | 1020.5 |
| 20260506125521 | 30 | 26 | 0.0 | 0.0 | 0.00 | 0.00 | 0.00 | 94 | 1020.6 |
| 20260506125019 | 30 | 27 | 0.0 | 0.0 | 0.00 | 0.00 | 0.00 | 94 | 1020.9 |
| 20260506124517 | 30 | 28 | 0.0 | 0.0 | 0.00 | 0.00 | 0.00 | 94 | 1020.4 |
| 20260506124014 | 30 | 27 | 0.0 | 0.0 | 0.00 | 0.00 | 0.00 | 94 | 1020.4 |
| 20260506123512 | 30 | 1 | 0.0 | 0.0 | 0.00 | 0.00 | 0.00 | 94 | 1020.6 |
| 20260506123010 | 30 | 30 | 0.0 | 0.0 | 0.00 | 0.00 | 0.00 | 95 | 1020.5 |
| 20260506122506 | 30 | 15 | 0.0 | 0.0 | 0.00 | 0.00 | 0.00 | 94 | 1020.3 |
| 20260506122005 | 30 | 15 | 0.0 | 0.0 | 0.00 | 0.00 | 0.00 | 94 | 1020.4 |
| 20260506121501 | 30 | 7 | 0.0 | 0.0 | 0.00 | 0.00 | 0.00 | 94 | 1019.8 |
| 20260506120958 | 30 | 15 | 0.0 | 0.0 | 0.00 | 0.00 | 0.00 | 94 | 1019.8 |
| 20260506120456 | 30 | 25 | 0.0 | 0.0 | 0.00 | 0.00 | 0.00 | 94 | 1019.8 |
| 20260506115953 | 30 | 21 | 0.0 | 0.0 | 0.00 | 0.00 | 0.00 | 95 | 1020.0 |
| 20260506115451 | 30 | 28 | 0.0 | 0.0 | 0.00 | 0.00 | 0.00 | 95 | 1019.8 |
| 20260506114949 | 30 | 25 | 0.0 | 0.0 | 0.00 | 0.00 | 0.00 | 95 | 1019.8 |
| 20260506114446 | 30 | 8 | 0.0 | 0.0 | 0.00 | 0.00 | 0.00 | 95 | 1020.0 |
| 20260506113944 | 30 | 17 | 0.0 | 0.0 | 0.00 | 0.00 | 0.00 | 94 | 1020.0 |
| 20260506113442 | 30 | 16 | 0.0 | 0.0 | 0.00 | 0.00 | 0.00 | 94 | 1019.9 |
| 20260506112938 | 30 | 16 | 0.0 | 0.0 | 0.00 | 0.00 | 0.00 | 94 | 1019.6 |
| 20260506112436 | 30 | 24 | 0.0 | 0.0 | 0.00 | 0.00 | 0.00 | 94 | 1019.8 |
| 20260506111933 | 30 | 25 | 0.0 | 0.0 | 0.00 | 0.00 | 0.00 | 94 | 1019.8 |
| 20260506111431 | 30 | 34 | 0.0 | 0.0 | 0.00 | 0.00 | 0.00 | 94 | 1019.8 |
| 20260506110928 | 30 | 29 | 0.0 | 0.0 | 0.00 | 0.00 | 0.00 | 94 | 1019.8 |
| 20260506110426 | 30 | 28 | 0.0 | 0.0 | 0.00 | 0.00 | 0.00 | 95 | 1019.8 |
| 20260506105922 | 30 | 26 | 0.0 | 0.0 | 0.00 | 0.00 | 0.00 | 95 | 1019.8 |
| 20260506105418 | 30 | 33 | 0.0 | 0.0 | 0.00 | 0.00 | 0.00 | 95 | 1019.8 |
| 20260506104916 | 30 | 33 | 0.0 | 0.0 | 0.00 | 0.00 | 0.00 | 95 | 1019.4 |
| 20260506104414 | 31 | 31 | 0.0 | 0.0 | 0.00 | 0.00 | 0.00 | 95 | 1019.6 |
| 20260506103911 | 31 | 31 | 0.0 | 0.0 | 0.00 | 0.00 | 0.00 | 95 | 1019.4 |
| 20260506103409 | 31 | 30 | 0.0 | 0.0 | 0.00 | 0.00 | 0.00 | 95 | 1019.4 |
| 20260506102905 | 31 | 33 | 0.0 | 0.0 | 0.00 | 0.00 | 0.00 | 95 | 1019.4 |
| 20260506102404 | 31 | 34 | 0.0 | 0.0 | 0.00 | 0.00 | 0.00 | 95 | 1019.3 |
| 20260506101901 | 31 | 33 | 0.0 | 0.0 | 0.00 | 0.00 | 0.00 | 95 | 1019.4 |
| 20260506101356 | 31 | 50 | 0.0 | 0.0 | 0.00 | 0.00 | 0.00 | 95 | 1019.2 |
| 20260506100854 | 31 | 34 | 0.0 | 0.0 | 0.00 | 0.00 | 0.00 | 95 | 1019.5 |
| 20260506100352 | 31 | 35 | 0.0 | 0.0 | 0.00 | 0.00 | 0.00 | 94 | 1019.2 |
| 20260506095850 | 31 | 48 | 0.0 | 0.0 | 0.00 | 0.00 | 0.00 | 94 | 1019.4 |
| 20260506095348 | 31 | 48 | 0.0 | 0.0 | 0.00 | 0.00 | 0.00 | 94 | 1019.2 |
| 20260506094844 | 31 | 33 | 0.0 | 0.0 | 0.00 | 0.00 | 0.00 | 95 | 1018.9 |
| 20260506094343 | 31 | 32 | 0.0 | 0.0 | 0.00 | 0.00 | 0.00 | 95 | 1019.0 |
| 20260506093841 | 31 | 31 | 0.0 | 0.0 | 0.00 | 0.00 | 0.00 | 95 | 1019.0 |
| 20260506093338 | 31 | 28 | 0.0 | 0.0 | 0.00 | 0.00 | 0.00 | 95 | 1019.4 |
| 20260506092835 | 31 | 34 | 0.0 | 0.0 | 0.00 | 0.00 | 0.00 | 95 | 1019.0 |
| 20260506092333 | 31 | 37 | 0.0 | 0.0 | 0.00 | 0.00 | 0.00 | 95 | 1019.0 |
| 20260506091830 | 31 | 22 | 0.0 | 0.0 | 0.00 | 0.00 | 0.00 | 95 | 1019.2 |
| 20260506091328 | 31 | 34 | 0.0 | 0.0 | 0.00 | 0.00 | 0.00 | 94 | 1019.0 |
| 20260506090825 | 31 | 34 | 0.0 | 0.0 | 0.00 | 0.00 | 0.00 | 94 | 1018.9 |
| 20260506090322 | 31 | 34 | 0.0 | 0.0 | 0.00 | 0.00 | 0.00 | 94 | 1019.2 |
| 20260506085819 | 31 | 42 | 0.0 | 0.0 | 0.00 | 0.00 | 0.00 | 94 | 1018.9 |
| 20260506085315 | 32 | 41 | 0.0 | 0.0 | 0.00 | 0.00 | 0.00 | 94 | 1018.9 |
| 20260506084812 | 32 | 70 | 0.0 | 0.0 | 0.00 | 0.00 | 0.00 | 94 | 1019.0 |
| 20260506084308 | 32 | 32 | 0.0 | 0.0 | 0.00 | 0.00 | 0.00 | 94 | 1019.0 |
| 20260506083805 | 32 | 39 | 0.0 | 0.0 | 0.00 | 0.00 | 0.00 | 94 | 1019.3 |
| 20260506083303 | 32 | 33 | 0.0 | 0.0 | 0.00 | 0.00 | 0.00 | 94 | 1019.3 |
| 20260506082800 | 32 | 32 | 0.0 | 0.0 | 0.00 | 0.00 | 0.00 | 94 | 1019.0 |
| 20260506082255 | 32 | 33 | 0.0 | 0.0 | 0.00 | 0.00 | 0.00 | 94 | 1019.2 |
| 20260506081753 | 32 | 33 | 0.0 | 0.0 | 0.00 | 0.00 | 0.00 | 94 | 1019.2 |
| 20260506081251 | 32 | 33 | 0.0 | 0.0 | 0.00 | 0.00 | 0.00 | 94 | 1019.4 |
| 20260506080748 | 32 | 33 | 0.0 | 0.0 | 0.00 | 0.00 | 0.00 | 94 | 1019.0 |
| 20260506080244 | 32 | 34 | 0.0 | 0.0 | 0.00 | 0.00 | 0.00 | 95 | 1019.3 |